User: anonymous   Login
Location: Unspecified
(0.0000°N, 0.0000°E)
Time: 09:59:25
(UTC+00:00)
Language:

STARLINK-32588 - Orbit

View from above orbital plane
View from above orbital plane
View from above satellite
View from above satellite

Ground track
Ground track

The orbit is defined by the following mean orbital elements,

1 61866U          26145.51288679 +.00000000 +00000-0 +17963-4 0 00004
2 61866  43.0039 164.4033 0001880 282.8079  77.2563 15.27577717    01
Epoch (UTC): 25 May 2026 12:18:33
Eccentricity: 0.0001880
inclination: 43.0039°
perigee height: 482 km
apogee height: 484 km
right ascension of ascending node: 164.4033°
argument of perigee: 282.8079°
revolutions per day: 15.27577717
mean anomaly at epoch: 77.2563°

The dashed part of the orbit path shows where the satellite is in the earth's shadow,  

DLR